Location: Unspecified
(0.0000°N, 0.0000°E)
Time: 17:53:12
(UTC+00:00)

STARLINK 1054 - Pass Details

Date: 19 January 2020
Orbit: 549 x 551 km, 53.0° (Epoch: 23 January)

Event Time Altitude Azimuth Distance (km) Brightness Sun altitude
Rises 05:07:32 0° 191° (S) 2,732 7.3 -14.7°
Reaches altitude 10° 05:10:12 10° 175° (S) 1,832 6.6 -14.1°
Maximum altitude 05:13:24 21° 125° (SE) 1,255 6.5 -13.4°
Drops below altitude 10° 05:16:35 10° 74° (ENE) 1,819 7.1 -12.6°
Sets 05:19:12 0° 58° (ENE) 2,707 7.7 -12.0°
